Location: Dalton
(34.7700°N, 84.9700°W)
Time: 07:23:00
(UTC-04:00)

Vanguard 2 - All Passes

Search period start: 17 July 2018 00:00
Search period end: 27 July 2018 00:00
Orbit: 553 x 2939 km, 32.9° (Epoch: 17 July)

Date Brightness Start Highest point End Pass type
(mag) Time Alt. Az. Time Alt. Az. Time Alt. Az.
17 Jul - 00:40:05 10° W 00:57:59 75° SSW 01:10:59 10° ESE visible
17 Jul - 02:54:21 10° W 03:08:38 41° SW 03:18:19 10° SSE visible
17 Jul - 16:26:57 10° SE 16:29:43 11° SE 16:32:41 10° ESE daylight
17 Jul - 18:26:16 10° SSW 18:38:28 41° SE 18:54:10 10° E daylight
17 Jul - 20:34:14 10° WSW 20:49:57 73° SSE 21:07:37 10° E daylight
17 Jul - 22:45:28 10° W 23:03:22 84° S 23:19:14 10° E visible
18 Jul - 00:58:33 10° W 01:16:09 68° SSW 01:28:53 10° ESE visible
18 Jul - 03:13:17 10° W 03:26:11 32° SW 03:35:20 10° SSE visible
18 Jul - 16:39:59 10° SSE 16:47:04 17° SE 16:55:40 10° E daylight
18 Jul - 18:43:31 10° SW 18:56:13 50° SSE 19:12:53 10° E daylight
18 Jul - 20:52:18 10° WSW 21:08:16 78° SSE 21:25:59 10° E visible
18 Jul - 23:03:51 10° W 23:21:49 83° S 23:37:26 10° ESE visible
19 Jul - 01:17:02 10° W 01:34:11 59° SSW 01:46:39 10° SE visible
19 Jul - 03:32:40 10° W 03:43:38 24° SW 03:51:53 10° S visible
19 Jul - 16:55:41 10° S 17:04:27 24° SE 17:15:54 10° E daylight
19 Jul - 19:01:02 10° SW 19:14:07 59° SSE 19:31:26 10° E daylight
19 Jul - 21:10:27 10° WSW 21:26:39 82° S 21:44:21 10° E visible
19 Jul - 23:22:15 10° W 23:40:12 79° SSW 23:55:36 10° ESE visible
20 Jul - 01:35:36 10° W 01:52:05 50° SSW 02:04:10 10° SE visible
20 Jul - 03:52:53 10° W 04:00:59 17° SW 04:07:36 10° SSW visible
20 Jul - 17:12:12 10° SSW 17:21:54 32° SE 17:35:18 10° E daylight
20 Jul - 19:18:46 10° WSW 19:32:10 67° SSE 19:49:55 10° E daylight
20 Jul - 21:28:42 10° W 21:45:07 84° S 22:02:42 10° E visible
20 Jul - 23:40:38 10° W 23:58:30 73° SSW 00:13:38 10° ESE visible
21 Jul - 01:54:20 10° W 02:09:49 41° SW 02:21:26 10° SSE visible
21 Jul - 04:16:14 10° WSW 04:18:19 10° SW 04:20:18 10° SW visible
21 Jul - 17:29:12 10° SSW 17:39:29 41° SE 17:54:14 10° E daylight
21 Jul - 19:36:41 10° WSW 19:50:21 74° SSE 20:08:23 10° E daylight
21 Jul - 21:46:59 10° W 22:03:35 84° S 22:21:03 10° E visible
21 Jul - 23:59:02 10° W 00:16:42 66° SSW 00:31:32 10° SE visible
22 Jul - 02:13:19 10° W 02:27:26 32° SW 02:38:21 10° SSE visible
22 Jul - 15:43:12 10° SSE 15:48:48 16° SE 15:55:47 10° E daylight
22 Jul - 17:46:31 10° SW 17:57:12 51° SSE 18:12:57 10° E daylight
22 Jul - 19:54:43 10° WSW 20:08:39 80° SSE 20:26:48 10° E daylight
22 Jul - 22:05:17 10° W 22:22:01 81° S 22:39:19 10° ESE visible
23 Jul - 00:17:29 10° W 00:34:45 57° SSW 00:49:14 10° SE visible
23 Jul - 02:32:47 10° W 02:44:56 24° SW 02:54:44 10° S visible
23 Jul - 15:59:00 10° S 16:06:09 23° SE 16:15:56 10° E daylight
23 Jul - 18:04:06 10° SW 18:15:05 60° SSE 18:31:32 10° E daylight
23 Jul - 20:12:51 10° W 20:27:02 83° S 20:45:16 10° E daylight
23 Jul - 22:23:36 10° W 22:40:24 77° SSW 22:57:30 10° ESE visible
24 Jul - 00:36:02 10° W 00:52:41 48° SSW 01:06:41 10° SE visible
24 Jul - 02:53:09 10° W 03:02:23 17° SW 03:10:15 10° SSW visible
24 Jul - 16:15:38 10° SSW 16:23:34 31° SE 16:35:13 10° E daylight
24 Jul - 18:21:53 10° WSW 18:33:07 69° SSE 18:50:02 10° E daylight
24 Jul - 20:31:03 10° W 20:45:28 84° S 21:03:42 10° E daylight
24 Jul - 22:41:55 10° W 22:58:43 71° SSW 23:15:32 10° ESE visible
25 Jul - 00:54:46 10° W 01:10:28 40° SW 01:23:51 10° SSE visible
25 Jul - 03:16:25 10° WSW 03:19:48 11° SW 03:23:01 10° SW visible
25 Jul - 16:32:43 10° SSW 16:41:08 41° SE 16:54:07 10° E daylight
25 Jul - 18:39:49 10° WSW 18:51:17 76° SSE 19:08:32 10° E daylight
25 Jul - 20:49:15 10° W 21:03:53 83° S 21:22:05 10° E visible
25 Jul - 23:00:16 10° W 23:16:54 63° SSW 23:33:24 10° SE visible
26 Jul - 01:13:49 10° W 01:28:10 31° SW 01:40:36 10° SSE visible
26 Jul - 14:47:03 10° SSE 14:51:05 14° SE 14:56:02 10° ESE daylight
26 Jul - 16:50:09 10° SW 16:58:51 51° SSE 17:12:48 10° E daylight
26 Jul - 18:57:51 10° WSW 19:09:33 81° S 19:27:02 10° E daylight
26 Jul - 21:07:29 10° W 21:22:17 80° S 21:40:24 10° ESE visible
26 Jul - 23:18:40 10° W 23:34:59 55° SSW 23:51:02 10° SE visible
